Tracking 17145 objects as of 30-May-2015
HD Live streaming from Space Station

COSMOS 2251 DEB

Track COSMOS 2251 DEB now!
10-day predictions
COSMOS 2251 DEB is classified as:


NORAD ID: 37120
Int'l Code: 1993-036BGS
Perigee: 743.1 km
Apogee: 821.9 km
Inclination: 74.0 °
Period: 100.4 minutes
Semi major axis: 7153 km
RCS: 0.0125 m2 (small)
Launch date: June 16, 1993
Source: Commonwealth of Independent States (former USSR) (CIS)

Note: This is SATELLITE DEBRIS
Your satellite tracking list
Your tracking list is empty





NASA's NSSDC Master Catalog

Two Line Element Set (TLE):
1 37120U 93036BGS 15142.84752797  .00006517  00000-0  22607-2 0  9994
2 37120 073.9981 194.8762 0055066 092.6381 268.0889 14.34901081280305

Source of the keplerian elements: AFSPC

N2YO: 286